Time,TemperatureF,DewpointF,PressureIn,WindDirection,WindDirectionDegrees,WindSpeedMPH,WindSpeedGustMPH,Humidity,HourlyPrecipIn,Conditions,Clouds,dailyrainin,SoftwareType,DateUTC
2013-02-28 00:09:00,38.9,36.0,30.45,North,352,1.0,2.0,88,0.00,,,0.00,weatherlink.com 1.10,2013-02-28 00:09:00,
2013-02-28 00:24:00,39.0,36.0,30.45,NNE,29,4.0,5.0,88,0.00,,,0.00,weatherlink.com 1.10,2013-02-28 00:24:00,
2013-02-28 00:39:00,39.0,36.0,30.44,NNE,27,1.0,2.0,88,0.00,,,0.00,weatherlink.com 1.10,2013-02-28 00:39:00,
2013-02-28 00:54:00,39.1,36.0,30.44,ESE,120,0.0,1.0,88,0.00,,,0.00,weatherlink.com 1.10,2013-02-28 00:54:00,
2013-02-28 01:09:00,39.2,36.0,30.44,ESE,118,0.0,0.0,89,0.00,,,0.00,weatherlink.com 1.10,2013-02-28 01:09:00,
2013-02-28 01:24:00,39.5,36.0,30.43,East,101,2.0,3.0,88,0.00,,,0.00,weatherlink.com 1.10,2013-02-28 01:24:00,
2013-02-28 01:39:00,39.7,36.0,30.43,East,88,2.0,4.0,87,0.00,,,0.00,weatherlink.com 1.10,2013-02-28 01:39:00,
2013-02-28 01:54:00,39.7,36.0,30.43,ESE,106,1.0,4.0,87,0.00,,,0.00,weatherlink.com 1.10,2013-02-28 01:54:00,
2013-02-28 02:09:00,39.7,37.0,30.42,ENE,70,3.0,4.0,88,0.00,,,0.00,weatherlink.com 1.10,2013-02-28 02:09:00,
2013-02-28 02:24:00,39.3,36.0,30.42,East,85,4.0,4.0,88,0.00,,,0.00,weatherlink.com 1.10,2013-02-28 02:24:00,
2013-02-28 02:39:00,39.2,36.0,30.42,ESE,115,3.0,5.0,87,0.00,,,0.00,weatherlink.com 1.10,2013-02-28 02:39:00,
2013-02-28 02:54:00,39.3,36.0,30.41,NE,48,2.0,4.0,88,0.00,,,0.00,weatherlink.com 1.10,2013-02-28 02:54:00,
2013-02-28 03:10:00,39.1,36.0,30.41,NNE,23,3.0,6.0,88,0.00,,,0.00,weatherlink.com 1.10,2013-02-28 03:10:00,
2013-02-28 03:25:00,39.1,36.0,30.41,NE,44,2.0,4.0,89,0.00,,,0.00,weatherlink.com 1.10,2013-02-28 03:25:00,
2013-02-28 03:40:00,39.1,36.0,30.40,ENE,77,0.0,4.0,89,0.00,,,0.00,weatherlink.com 1.10,2013-02-28 03:40:00,
2013-02-28 03:55:00,39.1,36.0,30.40,ENE,73,0.0,5.0,89,0.00,,,0.00,weatherlink.com 1.10,2013-02-28 03:55:00,
2013-02-28 04:25:00,39.3,36.0,30.40,NNE,31,4.0,5.0,89,0.00,,,0.00,weatherlink.com 1.10,2013-02-28 04:25:00,
2013-02-28 04:40:00,39.1,36.0,30.40,NNE,13,5.0,6.0,89,0.00,,,0.00,weatherlink.com 1.10,2013-02-28 04:40:00,
2013-02-28 04:55:00,38.8,36.0,30.40,North,11,1.0,5.0,89,0.00,,,0.00,weatherlink.com 1.10,2013-02-28 04:55:00,
2013-02-28 05:10:00,38.7,36.0,30.40,NNE,18,2.0,6.0,89,0.00,,,0.00,weatherlink.com 1.10,2013-02-28 05:10:00,
2013-02-28 05:25:00,38.5,36.0,30.40,North,8,3.0,6.0,89,0.00,,,0.00,weatherlink.com 1.10,2013-02-28 05:25:00,
2013-02-28 05:40:00,38.2,35.0,30.40,NE,37,2.0,5.0,89,0.00,,,0.00,weatherlink.com 1.10,2013-02-28 05:40:00,
2013-02-28 05:55:00,38.1,35.0,30.40,North,356,0.0,3.0,89,0.00,,,0.00,weatherlink.com 1.10,2013-02-28 05:55:00,
2013-02-28 06:10:00,38.0,35.0,30.40,North,10,1.0,2.0,89,0.00,,,0.00,weatherlink.com 1.10,2013-02-28 06:10:00,
2013-02-28 06:25:00,37.7,35.0,30.40,SSW,204,0.0,1.0,90,0.00,,,0.00,weatherlink.com 1.10,2013-02-28 06:25:00,
2013-02-28 06:40:00,37.5,35.0,30.40,NW,316,0.0,2.0,90,0.00,,,0.00,weatherlink.com 1.10,2013-02-28 06:40:00,
2013-02-28 06:55:00,37.3,35.0,30.40,NNW,338,0.0,1.0,90,0.00,,,0.00,weatherlink.com 1.10,2013-02-28 06:55:00,
2013-02-28 07:10:00,37.3,35.0,30.40,NNW,339,0.0,1.0,90,0.00,,,0.00,weatherlink.com 1.10,2013-02-28 07:10:00,
2013-02-28 07:25:00,37.4,35.0,30.40,NNW,338,0.0,1.0,90,0.00,,,0.00,weatherlink.com 1.10,2013-02-28 07:25:00,
2013-02-28 07:40:00,37.4,35.0,30.40,NNE,30,0.0,2.0,91,0.00,,,0.00,weatherlink.com 1.10,2013-02-28 07:40:00,
2013-02-28 07:55:00,37.6,35.0,30.40,NW,304,0.0,1.0,91,0.00,,,0.00,weatherlink.com 1.10,2013-02-28 07:55:00,
2013-02-28 08:10:00,37.7,35.0,30.40,ENE,58,3.0,5.0,91,0.00,,,0.00,weatherlink.com 1.10,2013-02-28 08:10:00,
2013-02-28 08:25:00,37.3,35.0,30.40,NNE,30,1.0,6.0,91,0.00,,,0.00,weatherlink.com 1.10,2013-02-28 08:25:00,
2013-02-28 08:40:00,37.3,35.0,30.40,NNW,341,0.0,3.0,91,0.00,,,0.00,weatherlink.com 1.10,2013-02-28 08:40:00,
2013-02-28 08:55:00,37.5,35.0,30.40,West,276,0.0,1.0,91,0.00,,,0.00,weatherlink.com 1.10,2013-02-28 08:55:00,
2013-02-28 09:10:00,37.8,36.0,30.40,West,259,1.0,2.0,91,0.00,,,0.00,weatherlink.com 1.10,2013-02-28 09:10:00,
2013-02-28 09:25:00,38.1,36.0,30.40,NW,326,0.0,0.0,91,0.00,,,0.00,weatherlink.com 1.10,2013-02-28 09:25:00,
2013-02-28 09:41:00,38.4,36.0,30.40,WSW,252,0.0,1.0,91,0.00,,,0.00,weatherlink.com 1.10,2013-02-28 09:41:00,
2013-02-28 09:56:00,38.7,36.0,30.39,SW,236,0.0,2.0,91,0.00,,,0.00,weatherlink.com 1.10,2013-02-28 09:56:00,
2013-02-28 10:11:00,39.1,37.0,30.39,West,264,0.0,1.0,91,0.00,,,0.00,weatherlink.com 1.10,2013-02-28 10:11:00,
2013-02-28 10:26:00,39.4,37.0,30.39,NW,321,1.0,1.0,90,0.00,,,0.00,weatherlink.com 1.10,2013-02-28 10:26:00,
2013-02-28 10:41:00,39.7,37.0,30.39,NNW,335,0.0,2.0,90,0.00,,,0.00,weatherlink.com 1.10,2013-02-28 10:41:00,
2013-02-28 10:56:00,40.1,38.0,30.39,WSW,253,0.0,1.0,90,0.00,,,0.00,weatherlink.com 1.10,2013-02-28 10:56:00,
2013-02-28 11:11:00,40.4,38.0,30.39,NW,323,0.0,1.0,89,0.00,,,0.00,weatherlink.com 1.10,2013-02-28 11:11:00,
2013-02-28 11:26:00,40.7,38.0,30.39,West,260,0.0,1.0,89,0.00,,,0.00,weatherlink.com 1.10,2013-02-28 11:26:00,
2013-02-28 11:41:00,40.8,38.0,30.38,NNE,23,2.0,3.0,89,0.00,,,0.00,weatherlink.com 1.10,2013-02-28 11:41:00,
2013-02-28 11:56:00,41.0,38.0,30.38,NNW,332,0.0,3.0,89,0.00,,,0.00,weatherlink.com 1.10,2013-02-28 11:56:00,
2013-02-28 12:11:00,41.3,38.0,30.37,North,354,0.0,3.0,89,0.00,,,0.00,weatherlink.com 1.10,2013-02-28 12:11:00,
2013-02-28 12:26:00,41.7,39.0,30.36,North,358,1.0,3.0,89,0.00,,,0.00,weatherlink.com 1.10,2013-02-28 12:26:00,
2013-02-28 12:41:00,42.0,39.0,30.36,NNE,20,2.0,3.0,88,0.00,,,0.00,weatherlink.com 1.10,2013-02-28 12:41:00,
2013-02-28 12:56:00,42.2,39.0,30.36,NNE,27,0.0,4.0,88,0.00,,,0.00,weatherlink.com 1.10,2013-02-28 12:56:00,
2013-02-28 13:11:00,42.5,39.0,30.36,NE,47,1.0,3.0,88,0.00,,,0.00,weatherlink.com 1.10,2013-02-28 13:11:00,
2013-02-28 13:26:00,42.9,40.0,30.36,NNE,14,1.0,6.0,88,0.00,,,0.00,weatherlink.com 1.10,2013-02-28 13:26:00,
2013-02-28 13:41:00,43.3,40.0,30.35,NE,53,3.0,5.0,87,0.00,,,0.00,weatherlink.com 1.10,2013-02-28 13:41:00,
2013-02-28 13:56:00,43.7,40.0,30.35,NNE,22,2.0,5.0,86,0.00,,,0.00,weatherlink.com 1.10,2013-02-28 13:56:00,
2013-02-28 14:11:00,43.9,40.0,30.34,East,81,4.0,5.0,85,0.00,,,0.00,weatherlink.com 1.10,2013-02-28 14:11:00,
2013-02-28 14:26:00,44.2,40.0,30.34,East,83,3.0,6.0,85,0.00,,,0.00,weatherlink.com 1.10,2013-02-28 14:26:00,
2013-02-28 14:41:00,44.2,40.0,30.34,East,89,4.0,7.0,84,0.00,,,0.00,weatherlink.com 1.10,2013-02-28 14:41:00,
2013-02-28 14:56:00,44.2,40.0,30.34,NE,34,4.0,5.0,84,0.00,,,0.00,weatherlink.com 1.10,2013-02-28 14:56:00,
2013-02-28 15:11:00,44.1,39.0,30.34,East,90,1.0,7.0,83,0.00,,,0.00,weatherlink.com 1.10,2013-02-28 15:11:00,
2013-02-28 15:26:00,44.2,39.0,30.33,NNE,29,5.0,8.0,83,0.00,,,0.00,weatherlink.com 1.10,2013-02-28 15:26:00,
2013-02-28 15:41:00,44.2,39.0,30.33,NNE,25,2.0,6.0,83,0.00,,,0.00,weatherlink.com 1.10,2013-02-28 15:41:00,
2013-02-28 15:56:00,44.3,39.0,30.33,NE,46,2.0,8.0,83,0.00,,,0.00,weatherlink.com 1.10,2013-02-28 15:56:00,
2013-02-28 16:11:00,44.3,39.0,30.33,NE,43,3.0,8.0,83,0.00,,,0.00,weatherlink.com 1.10,2013-02-28 16:11:00,
2013-02-28 16:26:00,44.1,40.0,30.33,NNE,23,1.0,8.0,84,0.00,,,0.00,weatherlink.com 1.10,2013-02-28 16:26:00,
2013-02-28 16:41:00,44.2,40.0,30.33,ENE,67,2.0,5.0,84,0.00,,,0.00,weatherlink.com 1.10,2013-02-28 16:41:00,
2013-02-28 16:56:00,44.2,40.0,30.33,NNE,14,2.0,5.0,84,0.00,,,0.00,weatherlink.com 1.10,2013-02-28 16:56:00,
2013-02-28 17:11:00,44.2,40.0,30.33,NE,39,0.0,3.0,84,0.00,,,0.00,weatherlink.com 1.10,2013-02-28 17:11:00,
2013-02-28 17:26:00,44.0,40.0,30.33,North,356,0.0,1.0,85,0.00,,,0.00,weatherlink.com 1.10,2013-02-28 17:26:00,
2013-02-28 17:41:00,43.5,39.0,30.33,NNW,348,1.0,1.0,85,0.00,,,0.00,weatherlink.com 1.10,2013-02-28 17:41:00,
2013-02-28 17:56:00,42.8,39.0,30.33,NW,314,0.0,0.0,86,0.00,,,0.00,weatherlink.com 1.10,2013-02-28 17:56:00,
2013-02-28 18:11:00,42.2,39.0,30.33,NW,314,0.0,1.0,88,0.00,,,0.00,weatherlink.com 1.10,2013-02-28 18:11:00,
2013-02-28 18:26:00,41.5,38.0,30.33,SW,233,0.0,0.0,88,0.00,,,0.00,weatherlink.com 1.10,2013-02-28 18:26:00,
2013-02-28 18:41:00,40.4,37.0,30.33,SW,233,0.0,0.0,88,0.00,,,0.00,weatherlink.com 1.10,2013-02-28 18:41:00,
2013-02-28 18:56:00,40.4,38.0,30.33,SW,236,0.0,1.0,90,0.00,,,0.00,weatherlink.com 1.10,2013-02-28 18:56:00,
2013-02-28 19:11:00,39.8,37.0,30.33,NNE,32,0.0,0.0,90,0.00,,,0.00,weatherlink.com 1.10,2013-02-28 19:11:00,
2013-02-28 19:26:00,38.9,36.0,30.34,NNE,32,0.0,0.0,90,0.00,,,0.00,weatherlink.com 1.10,2013-02-28 19:26:00,
2013-02-28 19:41:00,38.5,36.0,30.33,NNE,32,0.0,1.0,91,0.00,,,0.00,weatherlink.com 1.10,2013-02-28 19:41:00,
2013-02-28 19:56:00,38.1,36.0,30.33,NNE,26,0.0,0.0,91,0.00,,,0.00,weatherlink.com 1.10,2013-02-28 19:56:00,
2013-02-28 20:11:00,37.7,36.0,30.33,NNE,26,0.0,0.0,92,0.00,,,0.00,weatherlink.com 1.10,2013-02-28 20:11:00,
2013-02-28 20:26:00,37.6,36.0,30.34,NNE,26,0.0,1.0,92,0.00,,,0.00,weatherlink.com 1.10,2013-02-28 20:26:00,
2013-02-28 20:41:00,37.1,35.0,30.34,NNE,26,0.0,1.0,92,0.00,,,0.00,weatherlink.com 1.10,2013-02-28 20:41:00,
2013-02-28 21:11:00,37.7,36.0,30.34,ESE,117,0.0,2.0,94,0.00,,,0.00,weatherlink.com 1.10,2013-02-28 21:11:00,
2013-02-28 21:26:00,37.6,36.0,30.34,ESE,117,0.0,0.0,93,0.00,,,0.00,weatherlink.com 1.10,2013-02-28 21:26:00,
2013-02-28 21:42:00,39.2,38.0,30.34,NE,49,0.0,3.0,95,0.00,,,0.00,weatherlink.com 1.10,2013-02-28 21:42:00,
2013-02-28 21:57:00,40.2,39.0,30.34,NE,44,0.0,1.0,94,0.00,,,0.00,weatherlink.com 1.10,2013-02-28 21:57:00,
2013-02-28 22:12:00,40.4,39.0,30.34,NE,49,0.0,2.0,93,0.00,,,0.00,weatherlink.com 1.10,2013-02-28 22:12:00,
2013-02-28 22:27:00,39.7,38.0,30.35,ENE,70,0.0,0.0,93,0.00,,,0.00,weatherlink.com 1.10,2013-02-28 22:27:00,
2013-02-28 22:42:00,40.8,40.0,30.34,ESE,116,0.0,3.0,95,0.00,,,0.00,weatherlink.com 1.10,2013-02-28 22:42:00,
2013-02-28 22:57:00,41.9,41.0,30.35,East,86,4.0,5.0,95,0.00,,,0.00,weatherlink.com 1.10,2013-02-28 22:57:00,
2013-02-28 23:12:00,42.4,41.0,30.35,East,92,4.0,5.0,94,0.00,,,0.00,weatherlink.com 1.10,2013-02-28 23:12:00,
2013-02-28 23:27:00,42.6,41.0,30.35,ENE,71,4.0,6.0,94,0.00,,,0.00,weatherlink.com 1.10,2013-02-28 23:27:00,
2013-02-28 23:42:00,42.7,41.0,30.35,ENE,74,2.0,8.0,95,0.00,,,0.00,weatherlink.com 1.10,2013-02-28 23:42:00,
2013-02-28 23:57:00,42.9,42.0,30.34,ENE,78,5.0,9.0,95,0.00,,,0.00,weatherlink.com 1.10,2013-02-28 23:57:00,